Temperature
17 17 17 17 17 17 17 17 17 17 17 17 17 17 17 17 17 17 17 17 17 17 17 17 17 17 17 17 17 17 17 17 17 17 17 17 16 16 16 16 16 16 16
17 17 17 17 17 17 16 16 16 16 16 16 16 16 17 16 17 17 17 17 17 17 17 17 17 17 17 17 17 17 17 17 17 17 17 17 16 16 16 16 16 16 16
17 17 16 16 16 16 16 16 16 16 16 16 16 16 16 16 16 16 16 16 17 17 17 17 17 17 17 17 16 17 17 17 17 17 17 17 16 16 16 16 16 16 16
17 16 16 16 16 16 16 16 16 16 16 16 16 16 16 16 16 16 16 16 16 16 16 16 16 16 16 16 16 16 16 16 16 16 16 16 16 16 16 16 16 16 16
16 16 16 16 16 16 16 16 15 15 15 15 15 15 16 16 16 16 16 16 16 16 16 16 16 16 16 16 16 16 16 16 16 16 16 16 16 16 16 16 16 16 16
16 16 16 16 15 15 15 15 15 15 15 15 15 15 15 15 15 16 16 16 16 16 16 16 16 16 16 16 16 16 16 16 16 16 16 16 16 16 16 16 16 16 16
16 15 15 15 15 15 15 15 14 14 14 14 14 15 15 15 15 15 15 15 16 16 16 16 16 16 16 16 16 16 16 16 16 16 16 16 16 16 16 16 16 16 16
15 15 15 15 15 14 14 14 14 14 14 14 14 14 14 15 14 15 15 15 15 15 15 15 15 16 16 16 16 16 16 16 16 16 16 16 16 16 16 16 16 16 16
15 15 15 14 14 14 14 14 14 14 13 13 13 13 13 13 14 14 14 14 14 14 15 15 15 15 15 15 16 16 16 16 16 16 16 16 16 16 16 16 16 16 16
15 15 14 14 14 14 13 13 13 13 13 13 13 12 12 12 12 13 14 14 14 14 14 14 14 15 15 15 15 15 15 15 15 15 15 16 16 16 16 16 16 16 16
15 14 14 14 13 13 13 13 13 12 12 12 12 12 12 12 12 12 12 13 13 14 13 14 14 14 14 15 15 15 15 15 15 15 15 15 15 16 16 16 16 16 16
14 14 14 13 13 13 13 12 12 12 12 12 12 11 11 11 11 11 11 12 12 13 13 13 14 14 14 14 14 14 15 15 15 15 15 15 15 15 15 15 15 15 16
14 13 13 13 13 12 12 12 12 12 11 11 11 11 11 11 11 11 11 11 11 12 12 13 13 13 13 13 14 14 14 14 15 15 15 15 15 15 15 15 15 15 15
13 13 13 13 12 12 12 12 11 11 11 11 11 11 11 11 10 10 10 10 10 11 11 12 12 12 12 13 13 13 13 14 14 14 15 15 15 15 15 15 15 15 15
13 13 13 12 12 12 12 11 11 11 11 11 11 10 10 10 10 10 10 10 10 10 10 11 11 12 12 12 12 13 13 13 13 14 14 14 14 14 15 15 15 15 15
13 13 12 12 12 12 11 11 11 11 11 11 10 10 10 10 10 10 10 10 10 10 10 10 11 11 11 12 12 12 12 13 13 13 14 14 14 14 14 14 15 15 15
13 13 12 12 12 12 11 11 11 11 11 11 10 10 10 10 10 10 10 10 10 9 9 10 10 10 11 11 11 11 12 12 12 13 13 13 14 14 14 14 14 14 14
13 13 12 12 12 12 12 11 11 11 11 11 10 10 10 10 10 10 10 10 9 9 9 9 10 10 10 11 11 11 11 11 12 12 13 13 13 13 13 14 14 14 14
13 13 13 12 12 12 12 11 11 11 11 11 10 10 10 10 10 10 10 10 9 9 9 9 9 10 10 10 10 10 11 11 11 12 12 12 13 13 13 13 13 14 14
13 13 13 13 12 12 12 12 11 11 11 11 10 10 10 10 10 10 9 9 9 9 9 9 9 9 9 9 10 10 10 10 11 11 11 12 12 12 13 13 13 13 14
14 13 13 13 12 12 12 12 11 11 11 11 10 10 10 10 10 9 9 9 9 9 9 9 9 9 9 9 9 9 9 10 10 11 11 11 12 12 12 12 13 13 13
14 13 13 13 13 12 12 12 11 11 11 11 11 10 10 10 10 9 9 9 9 9 8 8 8 8 9 9 9 9 9 9 9 10 10 11 11 11 12 12 12 13 13
14 13 13 13 13 12 12 12 11 11 11 11 10 10 10 10 10 9 9 9 9 8 8 8 8 8 8 8 8 8 8 8 9 9 9 10 11 11 11 12 12 12 13
14 13 13 13 13 12 12 12 11 11 11 11 11 10 10 10 10 9 9 9 9 9 8 8 8 8 8 8 8 8 8 8 8 9 9 9 10 10 11 11 12 12 12
14 13 13 13 12 12 12 12 11 11 11 11 11 10 10 10 10 9 9 9 9 9 9 8 8 8 8 8 8 8 8 8 8 9 9 8 9 10 10 11 11 12 12
14 13 13 13 12 12 12 12 11 11 11 11 11 10 10 10 10 9 9 9 9 9 9 8 8 8 8 8 8 8 8 7 7 8 8 8 9 9 9 10 11 11 11
Wind_Speed
3 2 2 2 2 2 2 2 1 1 1 1 1 1 2 3 3 4 6 7 10 13 15 16 18 18 18 18 18 18 17 17 16 16 16 15 15 15 14 14 13 13 13
4 3 3 3 3 3 2 2 2 1 1 1 2 2 2 3 3 5 6 7 8 11 13 15 16 18 19 19 19 19 19 18 18 18 17 17 16 16 15 15 15 14 14
6 5 3 2 3 3 3 3 3 2 1 1 2 2 2 3 4 5 6 7 7 9 12 14 16 17 18 19 20 20 20 20 20 19 19 19 18 18 17 16 16 16 15
7 6 3 2 3 4 3 2 2 2 1 1 2 2 2 3 4 5 5 6 6 7 9 12 15 16 17 18 19 20 21 22 22 21 21 20 20 20 19 18 17 17 17
7 6 4 3 4 4 3 2 2 1 1 2 2 2 2 2 3 4 4 4 5 6 8 10 12 15 17 18 19 20 21 22 23 23 23 22 22 21 21 20 20 19 18
6 6 5 4 5 3 3 2 2 2 1 2 2 3 3 3 2 2 3 3 3 4 5 7 8 10 14 17 18 19 20 21 23 24 24 24 23 23 23 22 22 21 20
6 6 4 4 4 3 2 2 1 2 2 2 2 3 3 3 2 2 3 2 3 4 4 4 6 7 8 11 15 18 19 21 22 24 25 26 25 25 25 24 24 23 22
5 5 5 4 3 3 3 2 2 1 2 2 1 1 3 4 3 3 3 3 4 4 5 4 4 5 7 8 11 14 17 20 21 22 24 26 27 27 27 26 26 25 24
4 5 5 5 4 3 2 1 2 2 1 1 1 2 1 1 3 3 3 3 4 4 4 6 5 5 5 7 9 11 14 16 19 21 22 24 27 29 29 28 27 27 26
4 4 5 5 4 3 2 1 2 1 2 0 1 0 1 2 1 3 3 3 5 4 5 5 6 6 6 5 6 9 11 13 16 18 20 22 25 27 28 29 29 28 28
3 4 5 5 4 2 2 1 2 1 1 1 1 0 0 0 1 2 3 4 4 4 4 5 5 5 6 5 5 7 8 10 12 15 17 19 22 24 26 28 29 29 29
2 3 4 4 3 2 2 2 2 2 1 1 1 1 1 1 2 2 3 3 4 4 4 4 4 5 6 6 6 7 7 8 9 12 14 16 19 22 24 26 28 29 29
1 1 2 2 2 2 2 2 1 1 1 2 2 2 2 2 2 2 2 3 3 3 3 3 3 5 6 7 8 9 8 9 9 10 12 14 16 18 21 23 26 28 29
3 2 2 2 2 2 1 2 1 1 1 2 2 2 2 3 3 3 3 2 3 3 2 4 3 4 6 8 10 10 8 9 10 10 10 12 15 17 19 21 24 27 28
2 3 2 2 1 1 2 1 1 2 1 2 2 3 2 2 2 3 4 4 3 4 4 4 3 3 6 8 11 10 9 11 11 11 11 12 13 15 17 19 21 25 27
3 3 3 2 2 2 2 2 2 2 2 3 2 3 3 3 3 3 3 4 4 4 5 3 4 5 7 9 10 9 10 12 12 12 13 13 13 14 16 17 18 21 24
4 4 4 3 3 3 2 2 3 3 3 4 3 4 5 4 3 3 3 3 4 4 6 6 4 4 5 7 8 9 9 9 10 12 13 13 13 14 15 16 17 18 21
5 5 4 4 4 4 3 4 5 4 4 5 5 5 5 4 4 4 3 4 5 5 6 8 5 4 5 6 7 7 8 8 9 12 13 14 14 14 15 16 17 18 20
5 4 4 5 5 5 4 5 5 5 6 6 6 6 6 5 6 5 5 5 5 5 6 6 6 4 4 4 5 6 7 6 8 10 11 12 13 14 14 15 17 18 19
5 5 5 5 5 5 5 5 5 6 6 6 6 6 7 7 7 7 6 7 6 6 6 6 6 6 5 5 4 5 6 5 6 8 9 10 11 12 13 14 16 17 19
6 6 5 5 5 5 6 6 6 6 6 6 7 7 7 9 10 8 7 7 7 6 6 6 6 5 6 5 5 4 6 7 7 5 5 6 6 7 9 12 14 16 18
6 5 6 6 6 6 8 9 7 7 7 7 8 8 8 9 10 10 11 11 9 8 8 7 7 8 9 8 6 6 5 5 5 3 3 6 5 7 7 9 12 15 17
6 6 6 6 8 9 11 12 11 8 8 8 9 8 8 8 8 7 9 10 10 11 13 10 10 11 9 8 7 7 7 7 8 6 4 7 6 8 8 11 14 16 17
6 6 7 7 8 10 12 12 12 8 9 10 10 10 10 10 9 8 8 8 9 9 10 9 10 12 11 10 9 8 8 8 8 7 6 6 7 8 8 10 14 15 16
6 7 6 7 8 10 12 13 11 6 8 10 10 10 10 11 12 11 8 9 10 10 11 13 14 14 15 15 11 7 7 7 8 7 5 5 6 7 7 7 9 12 13
7 7 7 8 9 10 12 13 10 6 8 9 9 9 12 13 14 12 9 9 11 12 9 9 9 10 11 12 13 11 10 9 8 7 5 5 5 4 5 4 4 6 8
Wind_Direction
149 140 124 115 113 128 141 139 112 85 60 345 315 283 260 257 255 252 249 250 241 227 220 215 209 206 205 204 202 200 200 199 196 193 192 190 186 184 184 182 180 178 175
148 131 120 112 106 111 126 123 114 94 51 338 325 313 288 273 265 261 260 263 257 238 229 223 216 213 211 209 208 207 205 206 203 199 198 197 195 192 192 190 188 187 186
138 127 116 106 102 105 106 96 81 69 47 354 324 318 307 289 278 270 263 260 261 254 241 231 225 221 220 217 215 214 211 211 208 205 203 202 201 199 198 197 195 194 194
140 127 118 110 109 102 96 94 75 66 30 4 328 314 312 299 290 281 265 258 256 257 256 246 236 229 227 227 225 222 218 215 213 210 209 207 206 204 203 203 202 200 200
137 131 124 121 117 99 85 93 76 77 34 347 314 307 320 313 300 293 282 272 261 257 257 257 253 243 237 235 234 232 227 222 219 215 214 213 212 210 207 206 206 206 205
136 130 123 117 110 95 76 71 79 61 47 340 329 330 322 320 321 323 311 309 295 282 273 265 261 258 249 242 237 235 236 232 226 221 218 217 217 215 212 210 210 210 209
138 134 126 116 104 99 94 88 88 58 27 5 14 344 337 343 349 350 341 348 346 334 323 289 269 263 261 252 243 237 237 237 234 229 224 220 219 218 215 214 213 213 212
144 148 140 130 121 113 92 77 86 89 29 30 66 40 351 346 348 359 356 9 359 357 357 338 312 286 269 261 255 248 241 238 237 235 231 225 221 220 219 217 216 215 215
132 135 142 136 132 128 126 117 116 122 102 23 52 125 124 279 313 327 351 5 0 2 353 343 339 321 296 271 263 259 252 244 242 241 236 231 226 222 220 220 219 217 217
99 120 134 137 134 130 136 145 127 125 135 124 16 46 181 184 232 319 325 341 350 353 344 338 334 331 322 302 282 272 262 255 250 245 241 236 231 227 223 222 222 221 220
73 103 126 134 137 138 143 132 121 127 144 171 190 186 107 86 186 217 293 321 331 325 323 317 318 328 333 325 308 296 280 266 256 252 247 239 234 231 228 227 226 226 225
55 85 116 125 133 142 152 154 147 148 158 168 183 192 193 202 208 207 248 288 305 305 310 304 309 320 329 330 323 317 305 292 276 261 252 244 237 234 232 230 229 229 228
141 146 122 130 145 165 168 159 163 181 184 191 203 211 214 223 213 202 226 262 282 297 306 302 298 308 320 325 324 326 313 304 294 278 262 253 245 241 235 232 231 231 230
191 185 162 171 182 180 173 166 188 221 208 220 234 225 229 238 218 207 209 220 276 291 288 285 300 296 312 317 314 317 313 309 301 291 278 264 256 250 244 238 234 232 232
199 188 186 194 212 209 201 188 219 243 233 240 247 246 245 252 235 229 224 214 230 276 288 277 280 295 306 307 306 307 303 300 299 293 287 276 264 255 250 244 240 234 231
199 193 207 218 230 232 218 208 237 246 242 252 244 244 249 253 253 241 231 227 224 240 269 271 269 285 296 300 301 302 300 299 295 292 288 284 272 261 253 247 242 237 232
204 209 216 221 232 241 235 226 244 248 250 261 260 251 259 258 259 257 244 235 231 226 258 277 269 280 284 289 300 302 300 296 293 290 287 283 277 267 256 248 243 240 235
213 214 216 223 237 242 238 234 248 251 249 257 259 256 263 264 257 257 251 250 248 234 242 274 282 282 277 285 290 295 297 295 291 290 286 281 277 271 261 254 249 244 241
218 219 218 230 242 248 246 244 243 250 250 251 252 250 257 257 262 260 255 256 258 257 240 257 275 275 278 283 291 292 293 292 295 292 286 281 277 272 266 261 256 250 246
220 227 228 236 244 250 252 252 249 252 253 254 252 250 254 251 255 261 261 258 259 262 258 257 268 274 273 277 275 285 293 292 295 296 286 283 279 276 270 263 258 253 249
226 227 232 244 248 249 249 246 247 250 250 259 261 258 257 257 254 253 257 257 254 258 262 262 268 272 274 275 274 273 283 293 290 276 284 283 281 279 274 265 259 255 251
225 223 231 240 249 252 254 254 249 251 253 257 265 268 268 267 267 268 266 262 250 250 255 258 264 264 268 269 270 269 274 285 289 267 274 286 281 278 274 268 263 258 253
221 228 235 238 248 256 260 262 258 249 250 254 257 263 269 267 264 269 274 277 270 258 248 248 257 261 265 263 262 268 262 259 265 271 278 283 277 276 275 270 268 265 258
220 229 237 240 248 258 258 260 262 254 253 255 253 253 257 266 266 260 269 275 275 271 261 252 249 257 260 261 253 258 266 269 268 264 245 268 275 274 276 271 267 264 259
222 227 235 237 245 259 260 260 257 251 255 260 259 253 250 257 260 255 258 267 276 278 270 255 249 254 257 257 251 252 255 257 270 270 231 243 268 274 274 269 265 261 259
224 230 240 241 242 254 261 260 252 241 254 262 264 258 248 247 254 253 249 254 267 275 280 282 274 270 267 263 252 239 242 249 259 267 238 223 253 262 277 263 265 274 271
Height
1564 1565 1566 1566 1567 1567 1568 1568 1569 1569 1570 1570 1571 1571 1572 1572 1573 1574 1574 1575 1576 1577 1579 1580 1581 1583 1584 1585 1587 1589 1591 1592 1594 1596 1598 1599 1601 1602 1604 1605 1607 1608 1610
1563 1564 1565 1565 1565 1566 1566 1567 1567 1568 1568 1568 1569 1569 1570 1570 1571 1572 1572 1573 1574 1575 1576 1577 1579 1580 1582 1583 1585 1587 1589 1591 1593 1594 1596 1598 1600 1602 1603 1605 1606 1608 1609
1562 1563 1564 1564 1564 1565 1565 1565 1566 1566 1566 1566 1566 1567 1567 1568 1568 1569 1570 1570 1571 1572 1574 1575 1576 1577 1579 1581 1583 1584 1586 1588 1591 1592 1594 1596 1598 1600 1602 1604 1605 1607 1609
1561 1562 1563 1563 1563 1564 1564 1564 1564 1564 1564 1564 1564 1564 1565 1565 1565 1566 1566 1567 1568 1569 1570 1572 1573 1574 1576 1578 1579 1581 1583 1585 1588 1590 1592 1594 1596 1598 1600 1602 1604 1606 1607
1561 1562 1562 1562 1563 1563 1563 1563 1563 1563 1563 1563 1563 1562 1562 1562 1562 1563 1563 1564 1565 1566 1567 1568 1569 1571 1572 1574 1576 1578 1580 1582 1584 1586 1588 1591 1593 1595 1597 1600 1602 1604 1605
1560 1561 1561 1562 1562 1562 1562 1562 1562 1562 1562 1561 1561 1561 1560 1560 1560 1560 1560 1561 1562 1563 1563 1564 1566 1567 1568 1570 1572 1573 1575 1578 1580 1582 1584 1587 1589 1592 1594 1596 1599 1601 1603
1559 1560 1560 1561 1561 1561 1561 1561 1561 1561 1560 1560 1560 1559 1558 1558 1558 1558 1558 1558 1559 1559 1560 1561 1562 1563 1564 1566 1567 1569 1571 1573 1575 1577 1580 1582 1585 1588 1590 1593 1595 1598 1600
1558 1558 1559 1560 1560 1560 1560 1560 1559 1559 1559 1558 1558 1557 1557 1558 1557 1556 1556 1556 1556 1557 1557 1558 1558 1559 1560 1561 1563 1564 1566 1568 1570 1572 1574 1577 1580 1583 1585 1588 1591 1593 1596
1557 1558 1558 1559 1559 1559 1558 1558 1558 1557 1557 1557 1556 1557 1556 1555 1555 1555 1555 1555 1555 1555 1555 1556 1556 1556 1557 1558 1558 1560 1561 1563 1564 1567 1569 1572 1574 1577 1580 1583 1586 1589 1591
1556 1556 1557 1557 1557 1557 1557 1556 1556 1556 1555 1555 1555 1555 1555 1555 1555 1553 1553 1553 1553 1553 1554 1554 1554 1554 1554 1554 1554 1555 1556 1558 1559 1561 1563 1566 1568 1571 1574 1577 1580 1583 1586
1555 1555 1555 1555 1555 1555 1555 1554 1554 1554 1553 1553 1553 1553 1553 1552 1552 1552 1551 1551 1551 1551 1551 1551 1551 1551 1551 1551 1551 1551 1552 1553 1554 1556 1557 1560 1562 1565 1567 1570 1573 1576 1579
1553 1553 1553 1553 1553 1553 1553 1552 1552 1551 1551 1551 1550 1550 1550 1550 1550 1550 1549 1548 1547 1548 1548 1548 1548 1548 1547 1547 1547 1548 1548 1549 1549 1551 1552 1554 1556 1558 1561 1563 1566 1569 1573
1552 1552 1552 1552 1551 1551 1551 1550 1550 1549 1549 1548 1548 1548 1548 1548 1548 1547 1546 1545 1544 1544 1544 1544 1545 1544 1544 1544 1544 1544 1544 1544 1545 1546 1547 1548 1550 1552 1554 1556 1559 1562 1566
1550 1550 1550 1550 1549 1549 1548 1548 1547 1547 1547 1546 1546 1546 1545 1545 1545 1544 1544 1543 1542 1541 1540 1541 1541 1541 1540 1540 1540 1540 1540 1540 1540 1541 1541 1542 1544 1545 1547 1549 1552 1554 1558
1548 1548 1548 1548 1547 1547 1546 1546 1545 1545 1544 1544 1544 1543 1543 1543 1542 1542 1541 1541 1541 1538 1536 1536 1537 1537 1536 1536 1535 1535 1535 1535 1536 1536 1536 1537 1538 1539 1540 1542 1544 1547 1550
1546 1546 1546 1546 1545 1545 1544 1544 1543 1543 1542 1542 1541 1541 1540 1540 1539 1539 1538 1538 1537 1536 1534 1532 1532 1532 1531 1531 1531 1530 1530 1530 1530 1531 1531 1531 1532 1533 1534 1535 1537 1539 1542
1544 1544 1544 1543 1543 1543 1542 1541 1541 1540 1540 1539 1539 1538 1538 1537 1536 1536 1535 1534 1533 1532 1530 1528 1528 1527 1527 1526 1526 1525 1525 1524 1525 1525 1525 1525 1526 1527 1527 1528 1530 1532 1534
1542 1542 1542 1541 1541 1540 1540 1539 1538 1538 1537 1537 1536 1535 1534 1534 1533 1532 1531 1530 1529 1528 1526 1524 1523 1523 1522 1521 1521 1520 1520 1519 1519 1519 1519 1519 1520 1520 1521 1522 1523 1524 1526
1540 1540 1540 1539 1539 1538 1537 1536 1536 1535 1534 1533 1533 1532 1531 1530 1529 1528 1527 1526 1525 1524 1522 1520 1518 1518 1517 1517 1515 1515 1514 1514 1513 1513 1513 1513 1513 1514 1514 1515 1516 1517 1519
1538 1538 1537 1537 1536 1535 1534 1534 1533 1532 1531 1530 1529 1528 1527 1526 1524 1523 1522 1521 1520 1518 1517 1516 1514 1513 1512 1511 1510 1509 1508 1508 1507 1507 1507 1506 1507 1507 1507 1508 1509 1510 1511
1535 1535 1534 1534 1533 1532 1531 1530 1529 1528 1527 1526 1525 1524 1522 1521 1520 1518 1517 1516 1515 1513 1512 1511 1509 1508 1507 1506 1506 1504 1503 1502 1501 1501 1500 1500 1500 1500 1501 1501 1502 1502 1503
1531 1531 1531 1530 1529 1528 1528 1527 1526 1524 1523 1522 1521 1519 1518 1517 1515 1514 1512 1511 1510 1508 1507 1506 1504 1503 1502 1501 1500 1499 1498 1496 1495 1496 1494 1494 1494 1494 1494 1494 1494 1495 1496
1528 1527 1527 1526 1525 1525 1524 1523 1522 1520 1519 1518 1516 1515 1513 1512 1511 1509 1508 1506 1505 1504 1502 1501 1499 1498 1497 1496 1495 1494 1493 1491 1490 1490 1489 1486 1487 1487 1487 1487 1487 1487 1488
1524 1523 1523 1522 1521 1520 1520 1518 1517 1516 1514 1513 1512 1510 1509 1507 1506 1504 1502 1501 1500 1498 1497 1495 1494 1492 1491 1490 1489 1488 1487 1485 1484 1484 1484 1481 1480 1480 1480 1480 1480 1480 1481
1519 1519 1518 1518 1517 1516 1515 1514 1513 1511 1509 1508 1507 1505 1504 1502 1501 1499 1497 1495 1494 1492 1491 1489 1487 1486 1485 1484 1483 1482 1481 1479 1477 1477 1477 1476 1474 1474 1473 1473 1473 1474 1474
1515 1514 1514 1513 1512 1511 1510 1509 1508 1506 1504 1502 1501 1500 1498 1497 1495 1494 1492 1490 1487 1486 1485 1483 1481 1480 1479 1478 1477 1476 1474 1473 1471 1470 1470 1470 1469 1469 1467 1466 1467 1467 1467